Wind_Speed
4 3 0 2 4 5 5 4 5 4 4 6 6 6 6 8 6 5 5 2 2 7 8 9 10 11 12 12 11 10 10 11 12 12 11 10 9 8 7 7 7 8 7 7 5 4 3 4 4 6 7 10 12 10 14 20 21 20 23 28 31 29 25 24 24 25 26 26 24 23 22 21 21 20 20 18 17 17 18 17 18 18 18 18 18 18
4 2 4 5 5 5 5 3 4 4 5 6 7 7 6 7 6 5 6 2 2 5 7 9 11 11 12 12 12 12 11 11 10 11 10 9 8 7 6 6 6 6 5 7 5 2 3 4 2 4 6 8 11 12 15 19 20 18 20 25 27 28 30 30 28 27 28 26 24 24 23 22 21 21 21 20 20 20 19 18 18 18 19 19 18 19
3 2 6 5 5 6 5 2 4 6 6 7 5 6 6 4 6 6 4 1 2 5 7 10 10 11 13 12 10 8 7 6 5 6 6 5 5 5 5 4 4 5 6 7 7 6 5 5 3 3 5 7 9 12 16 18 19 20 20 22 24 28 32 33 32 32 29 25 24 23 22 22 21 19 19 19 20 20 20 19 19 19 19 19 19 19
1 5 6 4 5 7 4 0 4 6 5 5 4 6 6 4 6 5 3 4 7 9 9 10 9 10 9 5 2 1 2 4 4 3 2 4 5 6 6 5 6 7 7 8 9 8 8 7 5 4 4 6 7 10 15 17 18 21 24 25 25 27 30 32 34 35 30 24 24 23 22 21 19 17 18 18 18 19 20 20 19 19 19 20 20 20
5 7 6 5 3 5 3 1 4 5 4 3 4 6 6 6 7 7 7 9 12 10 6 5 8 5 1 0 2 2 1 2 2 3 4 5 6 6 6 7 8 8 9 9 10 9 9 9 8 7 6 5 7 10 13 16 19 21 25 26 27 27 28 27 29 32 29 25 25 24 21 20 18 17 18 18 19 20 21 21 21 21 20 20 21 21
6 6 4 4 2 3 3 2 5 6 6 4 1 3 6 8 9 10 10 9 9 5 3 3 7 1 3 3 2 3 2 2 5 7 8 8 8 8 8 9 10 10 10 10 10 10 10 11 11 8 7 6 6 8 11 15 18 21 23 25 27 28 26 25 25 27 28 27 27 26 23 23 22 20 21 20 21 22 22 23 22 22 22 22 22 22
5 5 3 4 3 3 3 2 6 7 7 3 3 4 7 9 10 10 10 7 6 4 2 4 6 2 2 2 2 5 3 3 6 8 9 10 10 10 10 10 10 10 10 11 11 11 11 12 12 10 9 8 7 6 9 12 15 19 22 24 26 26 26 26 25 26 28 30 30 29 26 26 25 23 22 22 22 22 22 23 22 22 23 23 23 24
5 5 5 6 5 4 5 4 7 7 7 3 6 7 9 9 10 10 9 7 4 5 3 2 3 4 2 3 6 4 3 4 5 7 9 11 12 11 11 11 11 10 10 10 11 11 12 12 13 12 11 9 9 9 7 10 13 17 21 23 25 26 26 27 26 25 28 31 31 30 28 27 25 23 22 22 22 22 22 22 22 22 23 23 25 25
5 6 7 9 6 6 6 6 6 6 6 5 8 10 10 9 10 8 7 5 3 4 1 3 4 5 0 5 6 4 5 6 8 9 10 12 13 12 12 11 11 11 11 10 10 11 12 12 13 13 12 10 9 10 8 8 12 14 17 20 24 27 26 25 25 25 27 31 31 30 28 26 24 22 21 21 21 22 23 22 21 21 21 22 24 26
4 6 8 9 7 7 7 5 4 5 6 6 10 12 8 7 6 6 5 2 1 2 1 5 6 4 2 5 5 6 7 8 9 9 10 13 14 13 12 12 12 11 10 11 10 11 12 13 13 13 12 11 9 9 9 8 10 13 15 18 23 26 25 24 24 24 26 29 29 28 26 25 24 22 20 19 20 22 23 23 22 21 21 21 22 25
5 3 4 7 7 8 7 2 1 5 8 9 10 8 3 2 2 2 2 1 2 2 3 6 6 5 2 5 6 6 8 9 9 10 12 14 15 15 13 13 12 11 10 11 11 11 13 13 13 14 13 12 10 9 9 8 8 11 14 16 20 23 24 24 23 24 27 27 26 25 23 24 24 22 20 20 21 23 23 23 23 22 22 22 23 26
7 4 3 4 6 9 9 1 4 3 8 9 7 5 2 2 2 3 2 1 1 3 4 6 6 5 1 5 6 7 9 11 11 12 15 16 16 15 14 14 13 12 11 12 11 11 12 12 13 14 14 13 11 10 10 9 8 9 13 15 17 21 24 25 25 26 27 26 25 24 22 23 24 22 22 23 24 25 25 24 23 22 23 23 24 25
5 5 3 2 2 10 11 4 3 1 6 8 7 6 4 1 2 1 1 2 2 4 5 6 5 3 2 5 7 9 11 13 13 14 16 16 17 16 15 14 13 12 12 12 11 11 11 11 12 14 14 13 12 10 10 9 9 8 10 14 17 20 22 25 26 27 29 31 31 30 26 25 26 25 26 27 27 26 25 23 22 23 24 24 25 25
4 6 5 1 1 8 10 6 4 5 8 9 8 8 6 4 4 4 4 3 3 4 6 6 2 1 4 4 8 12 13 15 16 16 16 16 17 17 15 14 13 13 12 11 10 11 11 11 13 14 13 12 12 11 10 8 8 8 9 12 17 19 20 24 28 29 32 35 36 36 33 29 26 25 27 27 25 24 24 23 23 25 26 25 25 26
2 4 6 6 3 6 8 8 6 5 6 8 7 6 6 5 4 4 4 4 4 3 6 7 2 4 4 3 8 14 15 16 17 17 18 17 16 16 15 15 13 12 12 11 11 12 12 13 15 14 12 12 12 12 10 8 8 8 8 10 14 18 20 23 27 30 32 31 32 34 35 35 31 28 26 24 22 21 22 25 25 26 26 24 24 24
1 4 5 4 3 5 7 9 8 5 3 6 5 5 6 4 3 3 3 3 3 1 4 6 3 5 5 3 9 16 16 18 19 18 19 17 17 17 16 15 14 13 12 11 12 13 14 15 16 15 14 13 12 12 11 10 9 8 9 10 12 15 19 22 26 30 32 31 30 29 31 34 35 32 29 27 26 24 24 27 30 29 26 24 25 23
0 4 4 2 2 4 5 8 11 8 4 3 5 6 6 3 3 1 2 1 3 1 3 4 3 4 3 2 11 18 18 19 20 19 19 17 18 18 16 15 15 14 14 13 13 13 14 16 16 16 16 14 13 13 13 12 10 10 10 10 12 13 17 21 24 28 31 31 31 30 30 31 31 32 31 29 30 30 27 28 32 33 27 25 27 23
1 2 4 1 3 5 1 2 9 11 8 4 5 5 2 1 2 2 1 2 2 2 3 4 4 5 4 4 11 18 20 21 21 20 20 18 19 18 17 17 17 16 16 16 15 14 14 15 17 17 18 17 16 14 13 13 11 10 10 10 12 13 15 19 23 26 28 29 30 32 34 34 32 31 30 28 30 32 31 29 29 29 26 25 27 23
2 1 4 1 2 4 3 3 4 9 9 6 5 3 2 1 1 2 2 2 4 4 3 5 5 5 6 8 12 18 20 21 21 19 20 20 18 16 16 17 17 16 15 15 15 13 12 14 17 18 19 19 18 16 13 12 11 9 9 10 12 13 14 16 19 23 27 29 29 31 35 35 33 31 30 29 31 32 33 30 25 25 26 25 24 24
2 1 3 3 2 3 1 1 3 5 7 4 4 4 3 2 2 4 3 1 4 5 5 6 6 5 6 9 13 17 18 19 18 17 18 20 18 15 15 16 15 14 14 13 14 13 12 14 17 18 19 19 19 17 14 12 10 10 9 9 10 12 13 15 17 21 25 27 28 30 32 32 32 32 30 31 31 31 33 32 28 28 28 26 25 27
2 2 1 3 4 3 0 5 6 5 4 3 4 5 4 2 0 1 1 1 3 5 5 6 6 4 5 8 12 14 15 16 17 16 15 17 17 16 15 15 13 13 13 12 12 13 13 14 17 18 17 18 17 16 14 12 11 10 9 9 9 10 11 14 16 19 23 25 27 28 30 30 31 30 31 33 33 31 33 35 34 32 29 28 30 30
2 2 1 2 3 1 4 6 6 6 6 5 5 4 4 3 1 0 2 2 3 4 3 4 6 4 4 7 10 11 13 15 16 15 13 14 17 16 14 15 14 13 13 13 13 13 13 14 16 17 17 17 16 15 14 13 12 11 10 10 10 9 9 11 13 16 20 22 25 27 29 29 29 29 31 34 34 33 32 32 34 32 28 29 31 30
2 3 2 0 2 4 6 6 4 5 4 4 5 4 4 4 3 3 4 3 3 4 3 5 6 2 5 9 11 11 12 13 13 13 11 11 13 14 15 16 16 15 14 15 15 14 14 17 18 18 18 18 16 16 15 14 13 12 11 12 11 10 10 9 10 13 16 20 23 25 27 28 28 30 33 32 33 35 34 31 32 33 30 29 31 31
1 3 2 1 4 5 6 5 3 2 1 2 5 4 4 4 3 3 4 3 3 4 4 5 5 3 7 10 11 12 14 13 13 13 11 10 10 13 15 15 15 16 16 16 16 14 16 18 18 17 17 17 17 17 16 15 14 13 12 12 11 11 11 10 10 11 13 17 21 23 25 26 28 31 33 32 32 34 33 30 33 37 35 33 32 31
1 2 2 2 3 4 4 4 2 1 1 2 4 4 4 4 1 1 1 2 2 4 4 5 5 5 8 11 12 14 16 15 15 14 12 10 11 12 14 14 15 17 17 18 18 17 17 17 16 16 18 18 18 18 18 17 15 14 13 12 12 12 12 12 11 10 11 14 18 21 23 25 26 29 32 35 34 33 31 29 33 38 38 36 34 30
2 3 3 4 3 2 1 1 1 1 1 2 3 4 4 3 1 2 3 4 3 5 4 4 6 8 11 13 14 16 17 17 17 16 14 12 12 13 14 14 14 14 16 19 20 19 18 16 16 18 19 19 19 18 18 19 18 15 13 13 13 12 12 12 12 11 11 13 16 19 22 23 25 25 28 33 34 32 29 27 30 36 37 35 34 31
3 3 3 4 5 4 4 3 2 2 1 1 3 3 3 2 1 3 5 4 4 5 4 2 7 12 14 15 16 17 18 18 17 17 16 14 13 14 15 15 14 13 14 17 18 18 19 17 18 19 20 19 19 18 18 18 18 16 14 13 13 12 12 12 13 13 13 13 15 18 20 23 25 26 27 28 29 30 30 27 28 34 36 35 34 32
3 3 1 3 4 4 4 3 0 1 2 2 1 2 2 2 2 3 4 3 4 6 6 7 11 14 13 14 16 18 18 17 16 16 15 14 14 14 15 16 18 18 17 17 18 20 21 19 18 19 21 21 20 19 19 18 17 16 14 14 14 13 12 12 12 14 14 14 15 17 20 22 24 26 27 27 26 29 31 28 28 33 37 36 35 34
5 2 1 2 5 5 5 3 2 2 3 4 3 2 2 2 2 3 4 3 4 6 8 10 13 13 12 13 16 17 17 16 16 15 14 13 14 15 16 17 18 20 21 20 19 20 21 20 18 19 21 22 21 21 21 19 17 16 15 15 15 14 13 12 12 14 15 15 17 18 19 20 22 24 26 27 26 28 31 30 29 33 37 38 36 35
4 1 2 1 5 5 3 3 3 3 4 6 6 2 2 3 2 2 4 5 6 7 8 11 13 12 10 12 15 16 15 14 14 13 14 14 15 17 17 16 17 19 21 21 20 20 20 20 19 20 22 22 22 21 21 19 17 17 17 16 15 15 15 14 13 13 15 16 17 18 18 19 20 22 24 25 26 28 30 30 29 30 33 35 34 37
2 0 2 1 5 3 3 3 4 4 5 7 7 4 1 4 3 2 4 5 6 7 9 11 12 10 9 12 15 15 14 14 14 14 14 14 15 17 17 16 17 19 19 21 21 20 21 21 20 20 21 22 22 21 19 18 17 17 18 17 16 16 17 16 15 14 15 17 17 17 18 18 20 22 23 25 26 27 28 29 28 27 27 29 31 35
3 1 2 3 5 2 4 3 4 5 7 8 8 4 1 3 4 3 4 4 4 6 9 11 10 9 11 13 15 15 15 16 16 15 14 13 14 16 16 16 18 18 19 20 20 20 21 20 19 20 22 23 23 21 19 18 18 18 18 18 17 18 19 18 17 16 16 17 17 17 18 18 20 22 24 25 26 26 26 25 26 27 27 29 31 31
4 4 2 3 5 2 3 3 5 5 7 6 5 4 1 2 4 4 5 5 3 5 6 9 9 10 13 15 15 16 16 16 16 14 13 13 14 15 16 16 17 17 17 19 19 20 20 19 19 22 24 23 23 23 20 18 18 19 19 20 19 18 19 19 19 18 16 16 17 17 18 18 20 21 24 26 26 26 25 25 26 27 27 29 31 30
3 5 3 2 4 3 1 4 6 7 5 1 3 3 2 2 4 6 8 8 3 3 5 9 10 13 15 14 15 16 16 15 16 13 11 12 13 14 16 16 16 16 17 18 18 18 19 20 22 25 25 23 22 23 22 19 19 19 20 21 20 19 19 20 19 17 16 15 15 16 17 17 18 21 23 24 25 25 26 26 27 27 27 28 29 29
4 5 3 2 5 6 4 4 7 5 1 2 3 3 1 1 3 6 8 5 1 2 7 10 12 14 15 14 14 15 14 16 16 11 8 12 13 14 15 15 15 16 16 17 17 16 18 21 23 25 24 23 23 22 20 20 21 21 20 20 20 19 19 20 20 18 16 15 15 15 16 15 17 20 22 22 23 25 25 25 26 26 27 27 28 29
5 4 3 3 4 5 5 4 4 3 1 3 3 3 2 1 2 5 6 1 3 5 8 10 12 13 14 14 13 13 14 16 13 5 6 12 15 14 14 14 14 16 15 15 16 18 20 23 24 25 23 22 23 22 20 21 22 21 20 19 18 17 17 18 19 20 20 19 18 16 14 14 13 14 17 20 21 23 26 27 27 27 27 27 27 27
6 5 4 3 2 3 6 5 5 5 3 4 3 3 2 2 2 4 5 1 2 6 9 10 13 14 14 14 13 14 15 14 9 2 8 14 15 15 15 14 15 16 15 15 17 18 20 22 22 23 23 22 23 22 21 21 21 20 19 18 18 18 17 17 17 19 21 21 20 19 15 13 12 11 12 16 19 20 22 25 26 27 27 26 26 26
7 5 4 3 2 2 5 6 5 7 3 3 4 4 2 1 1 2 4 2 2 7 9 10 13 14 13 13 14 15 13 10 6 5 10 15 16 16 16 16 17 18 17 17 18 19 21 22 22 22 22 23 24 24 23 23 21 19 18 18 18 18 18 18 18 19 20 20 20 20 17 13 13 12 11 13 18 21 22 23 22 23 25 26 25 25
7 6 4 5 4 4 5 6 5 5 2 4 5 4 3 1 2 2 4 1 4 8 10 10 12 13 13 13 14 13 10 8 7 7 11 15 16 15 15 16 17 19 19 18 18 19 21 22 22 22 22 23 25 25 24 24 21 19 18 17 17 18 17 18 19 19 20 20 20 19 17 15 14 14 14 15 18 21 24 27 27 23 21 24 26 26
7 5 5 6 6 4 4 5 5 5 2 3 4 3 3 2 2 3 4 2 7 10 10 10 11 12 11 11 12 10 8 8 8 10 13 15 16 15 15 16 17 18 19 19 20 21 21 21 21 22 23 25 25 24 24 24 22 21 19 18 18 18 18 19 19 19 19 19 19 17 16 15 14 13 13 14 18 21 22 24 25 25 25 25 24 25
5 5 5 7 7 4 4 5 6 5 2 4 5 4 4 3 3 3 3 5 7 9 9 8 9 10 9 10 9 7 8 9 10 12 14 14 14 15 16 18 18 19 20 20 21 23 23 21 21 22 23 24 24 23 23 24 23 21 20 19 19 19 19 20 19 19 18 18 17 16 15 14 14 14 13 12 14 16 18 18 19 22 25 27 26 25
5 5 5 6 6 5 5 5 7 5 1 4 5 5 5 3 2 2 3 4 6 8 8 8 7 7 8 9 7 7 9 11 12 13 14 13 13 13 15 17 18 19 20 21 22 23 23 22 23 22 21 22 23 22 23 23 23 22 21 21 21 21 21 21 20 19 19 18 17 16 15 14 13 14 13 13 13 15 16 15 18 22 24 24 26 27
5 4 5 6 5 5 5 5 7 5 2 8 7 5 5 4 3 4 4 5 4 5 7 7 6 6 8 8 8 9 11 11 12 13 13 13 13 12 14 16 16 17 19 21 22 23 23 23 23 23 21 21 22 23 22 23 23 23 23 23 23 23 22 22 21 20 19 18 17 16 15 14 14 14 13 12 12 14 15 14 16 22 23 23 24 24
4 5 6 4 3 4 5 5 3 1 4 8 6 3 3 4 3 4 5 5 4 4 4 5 5 6 7 8 8 9 10 11 11 13 13 13 12 12 13 14 15 17 19 20 22 23 24 24 23 23 22 21 22 23 23 23 23 24 25 25 25 24 23 22 22 21 20 19 19 17 16 16 15 14 13 13 12 12 13 13 13 17 18 18 19 20
3 3 4 4 3 5 7 5 2 1 2 5 6 5 5 4 3 2 4 5 4 3 3 4 5 6 7 8 8 9 9 10 11 12 13 13 12 12 13 14 15 16 18 20 21 23 24 23 23 23 23 22 22 23 24 24 24 26 28 28 27 25 24 24 22 20 20 20 20 19 18 17 16 16 15 15 14 13 13 12 12 14 15 15 16 18
2 1 2 3 4 6 8 9 8 7 6 5 6 6 5 4 3 3 3 4 3 3 3 3 5 7 7 7 7 8 8 10 12 12 12 12 11 12 14 14 15 16 18 20 21 22 24 23 21 22 24 23 23 24 24 25 24 26 29 31 28 26 25 24 23 21 19 20 20 20 19 18 17 18 18 17 15 14 13 12 13 14 14 14 16 17
4 4 5 6 6 5 5 6 5 5 5 5 6 6 6 6 5 4 4 3 2 2 3 3 4 6 7 7 7 8 9 10 11 12 12 11 10 12 13 14 15 16 18 19 20 22 23 22 21 21 22 23 23 23 24 24 24 25 29 30 27 26 25 23 22 21 20 20 20 19 20 20 20 20 19 17 15 14 13 12 13 14 15 15 16 17
2 3 5 9 10 9 9 8 6 6 7 8 7 6 6 6 5 5 4 2 2 3 3 3 4 5 6 6 6 8 9 10 10 11 12 10 9 11 13 15 16 16 17 19 20 21 21 20 19 20 20 21 22 23 23 23 24 25 28 28 26 26 25 23 22 21 20 20 20 19 20 21 21 21 19 18 17 17 15 14 14 14 15 16 17 17
0 2 5 7 8 9 10 10 9 10 10 8 7 6 5 5 5 5 5 4 4 4 4 3 4 5 6 6 6 7 8 9 9 11 12 11 9 10 13 15 16 16 17 18 19 19 19 19 19 20 20 20 21 22 21 22 22 25 27 27 26 26 26 26 24 22 21 20 20 21 22 21 21 21 20 20 20 19 18 17 17 17 18 19 20 20
5 7 8 7 7 8 7 7 7 8 7 5 4 5 5 5 5 6 6 5 5 4 3 3 4 5 5 5 5 6 7 8 9 10 11 10 10 12 14 15 15 16 17 17 17 17 17 18 18 18 19 19 20 20 20 21 22 24 26 26 25 24 25 26 26 24 23 22 22 23 24 22 21 21 21 20 21 22 22 22 22 22 23 25 27 27
8 9 8 8 8 8 6 6 6 6 7 6 3 4 5 6 6 7 7 6 4 3 2 3 4 4 4 4 4 6 7 8 9 10 9 9 11 13 13 14 15 15 15 15 15 15 16 17 18 18 18 19 20 20 20 21 23 24 25 24 23 22 22 23 24 23 22 22 25 26 25 22 21 22 21 20 21 23 25 27 27 27 27 29 31 33
Wind_Direction
263 254 115 11 17 9 359 351 334 328 305 296 285 278 279 281 278 282 299 41 24 302 289 289 291 287 286 285 284 280 277 276 275 276 273 270 271 273 279 283 285 286 293 311 338 34 24 337 285 253 244 236 231 199 189 197 192 190 192 197 204 203 210 220 212 202 197 195 196 195 195 193 191 189 192 202 206 208 213 211 209 207 205 203 199 197
246 278 54 26 6 348 334 339 313 288 272 272 273 278 275 275 285 293 300 334 350 298 292 294 291 287 288 286 283 279 276 275 275 277 275 272 276 273 274 278 280 285 295 301 306 342 15 9 328 251 244 238 226 199 192 201 199 196 197 202 207 203 203 213 218 210 203 202 200 199 200 196 191 186 185 194 202 206 210 210 210 209 207 205 201 198
201 57 45 15 348 322 304 288 273 271 268 263 264 279 276 302 318 290 262 259 304 298 296 298 296 290 286 282 283 283 281 290 301 300 297 295 293 293 297 304 307 305 303 303 309 323 341 4 356 278 246 239 230 210 205 208 204 202 203 204 207 207 205 207 213 213 207 206 206 205 206 199 190 185 185 191 199 203 206 208 210 209 208 206 205 202
126 47 25 344 325 314 300 281 283 271 261 264 281 287 287 333 330 293 276 311 304 288 281 291 293 284 278 264 234 104 355 339 340 326 334 347 344 343 345 349 342 329 325 321 322 330 337 345 351 337 292 254 230 217 217 215 207 203 206 206 204 208 209 205 206 210 208 204 206 210 210 201 187 179 185 192 196 202 206 210 211 209 207 205 208 208
58 33 355 314 320 326 312 34 345 306 283 281 286 297 310 323 315 306 309 311 300 277 255 289 291 279 289 212 132 110 16 16 37 22 31 30 22 15 8 10 4 352 343 332 330 337 340 343 349 348 329 287 237 220 220 220 213 208 210 211 206 204 209 208 205 207 209 205 204 208 204 195 185 178 182 190 198 205 210 212 210 207 204 203 207 210
51 30 345 328 7 354 319 23 16 335 301 287 279 339 333 315 301 297 297 300 296 270 122 2 300 258 136 252 301 350 330 106 82 35 28 31 27 21 13 12 8 358 352 344 342 347 346 344 342 338 339 324 274 234 222 222 219 216 215 212 209 206 208 213 208 204 206 206 203 202 197 190 186 182 184 193 202 207 209 210 208 206 204 202 205 209
40 38 16 359 355 344 340 19 21 343 299 308 48 360 314 298 288 287 288 285 287 293 20 349 308 292 200 217 30 10 347 98 80 40 28 24 20 16 8 4 3 360 356 352 353 357 355 348 343 338 339 330 308 275 235 224 222 221 217 211 209 209 210 212 209 202 204 208 207 205 201 197 192 188 190 197 201 203 205 206 205 205 204 203 205 208
26 40 37 12 358 0 3 2 8 340 299 342 20 326 297 288 283 283 282 272 283 298 296 359 327 288 262 71 53 32 55 67 34 18 19 15 11 9 5 360 358 358 357 355 356 359 358 353 349 348 345 334 321 309 266 230 224 223 222 216 210 210 213 212 207 202 203 208 210 209 206 203 199 196 194 194 197 200 201 201 203 205 205 204 205 209
32 36 32 13 14 27 12 358 357 327 303 349 342 308 289 286 285 283 276 266 291 289 236 55 342 286 258 71 60 53 47 22 358 358 3 2 1 1 359 354 351 353 353 353 355 357 356 353 350 349 349 346 335 324 296 249 229 223 224 221 214 212 215 214 207 202 203 209 212 210 208 207 205 202 196 189 192 200 201 198 200 204 205 202 204 209
66 41 31 22 24 17 2 4 6 334 327 331 311 293 277 272 273 270 275 269 251 254 54 33 351 318 45 64 51 39 22 1 352 355 357 355 351 349 349 345 343 346 345 346 348 352 354 352 349 348 349 353 350 339 321 280 242 227 224 224 220 215 215 214 209 202 202 210 215 210 206 207 207 204 200 191 191 199 202 199 198 202 203 201 203 209
114 103 54 37 22 351 337 357 80 318 319 313 301 298 276 233 221 229 264 277 208 139 47 16 352 330 13 59 44 28 15 3 354 349 349 346 341 340 339 334 335 338 338 338 340 343 346 348 348 347 349 354 354 348 339 316 265 237 227 227 225 218 214 213 210 204 202 210 219 217 207 204 205 204 204 200 196 199 200 199 199 201 202 203 204 207
120 134 115 56 18 349 333 347 150 272 317 326 324 323 276 176 161 190 178 227 247 81 31 353 340 314 326 63 35 20 12 2 353 344 338 335 333 333 331 327 328 331 330 329 332 336 339 342 346 346 345 348 351 352 349 338 307 260 235 231 230 223 216 212 209 206 204 207 217 222 216 209 206 207 207 205 202 201 202 201 200 199 201 206 208 207
94 78 96 147 33 3 350 6 102 19 355 1 360 352 333 85 92 83 84 58 42 59 24 354 345 339 57 49 16 12 4 354 350 341 335 331 327 324 324 323 321 322 324 325 327 329 330 334 339 340 338 339 343 346 346 339 326 295 252 235 230 228 223 216 214 212 210 212 216 222 224 217 212 216 215 209 204 202 202 200 196 197 199 204 208 207
118 83 51 50 86 12 3 16 32 26 29 25 20 15 9 29 47 34 39 46 51 57 28 12 359 21 47 41 16 9 0 354 350 343 339 332 325 322 319 317 315 315 316 319 321 321 324 329 330 331 331 331 332 335 338 335 327 313 279 248 233 231 229 224 222 221 220 222 224 226 227 221 215 221 223 217 209 204 203 200 195 198 199 199 204 206
155 109 33 16 24 7 17 30 11 3 36 39 35 33 32 33 23 19 27 27 24 29 26 27 21 356 13 57 25 10 2 359 354 347 345 337 331 328 318 313 312 311 311 315 319 318 320 323 322 323 325 324 324 326 328 328 322 313 295 271 246 234 229 226 226 225 224 227 229 228 227 223 218 221 227 226 218 209 206 204 199 200 201 199 202 206
80 99 60 35 20 8 33 37 3 331 22 47 41 40 49 38 353 10 40 16 341 317 29 33 16 5 27 74 22 8 2 359 354 348 344 340 340 337 328 322 317 311 312 316 319 318 318 319 317 318 321 320 320 321 320 318 314 304 293 284 265 245 232 227 226 227 225 226 228 228 226 224 220 221 227 230 227 221 215 210 207 207 206 203 204 205
137 98 97 143 91 46 37 36 24 5 355 30 42 45 56 26 318 345 80 324 276 251 33 17 348 5 29 44 7 1 359 357 356 351 346 344 344 340 335 331 324 316 314 314 316 317 315 316 315 315 317 317 317 316 314 311 306 296 288 282 275 260 241 230 225 226 227 227 228 228 227 226 223 223 226 228 229 229 223 216 216 215 212 209 211 210
324 114 115 189 106 87 72 51 54 34 8 15 49 40 22 271 277 293 354 1 1 31 30 10 5 2 357 353 354 356 356 353 352 351 347 346 345 342 338 335 332 325 318 314 312 312 313 313 313 314 313 313 313 312 308 307 302 291 281 276 274 267 252 237 227 224 225 227 228 228 227 228 225 222 224 224 226 227 224 220 218 215 211 212 214 211
322 162 123 140 109 115 186 213 82 54 41 44 52 23 327 301 348 359 4 359 359 360 4 9 11 9 9 2 352 355 355 349 347 349 347 344 342 340 338 339 338 331 325 319 311 308 312 313 312 313 311 310 311 311 308 305 301 292 281 273 270 266 259 248 234 224 223 226 228 228 226 225 223 221 222 224 223 220 219 219 214 207 208 210 208 206
302 252 121 126 147 162 169 23 28 58 69 68 48 29 13 359 12 26 29 334 328 340 356 358 354 20 29 5 353 355 352 345 345 348 344 342 341 338 338 340 340 335 331 325 317 310 309 314 315 313 310 309 310 311 310 307 303 299 288 275 269 267 261 253 241 229 224 224 225 227 227 225 224 224 223 225 223 215 212 215 212 205 204 202 201 203
282 280 78 125 147 201 86 49 31 33 44 43 44 29 14 10 62 79 65 1 335 347 1 344 335 15 33 3 358 357 351 347 349 348 342 340 341 339 338 339 339 336 332 328 326 317 309 312 315 314 310 309 309 310 310 310 309 305 300 288 279 273 261 250 243 236 230 226 223 224 225 226 226 225 225 227 224 215 208 209 210 205 200 200 203 204
318 306 320 130 140 124 79 68 46 41 37 33 45 34 21 25 4 45 71 50 355 353 355 320 319 349 25 9 4 357 350 351 352 351 345 340 340 337 337 342 342 343 340 336 334 329 319 314 314 316 315 311 311 313 313 315 314 310 311 306 295 285 268 253 244 239 236 233 229 226 225 225 224 224 225 226 225 220 212 207 207 202 198 203 209 208
341 298 289 143 91 74 90 97 66 60 65 56 57 50 37 32 2 358 23 17 348 347 336 312 316 351 47 19 358 351 354 352 353 356 348 339 337 333 336 342 344 348 349 343 339 338 332 324 318 316 316 314 315 316 316 317 315 313 316 313 306 300 287 270 252 242 238 235 234 232 230 228 226 224 224 225 225 223 216 209 205 203 202 209 212 212
245 276 272 167 119 104 114 126 104 81 156 80 60 52 44 48 28 351 2 342 330 354 346 321 319 4 35 13 350 350 354 348 351 360 353 340 335 334 335 336 339 346 350 349 346 342 337 332 325 318 315 315 315 314 315 316 314 314 315 313 311 309 299 285 264 246 236 232 232 234 234 232 231 229 226 224 223 219 212 208 206 206 209 214 212 210
247 310 301 260 186 162 157 152 157 208 225 51 53 55 54 54 43 272 297 268 312 19 348 306 316 350 5 352 344 352 351 346 352 359 356 347 341 341 338 333 336 340 343 350 350 344 341 337 331 325 321 319 318 314 312 311 310 312 314 314 314 310 303 293 275 254 238 231 228 230 234 233 232 232 228 224 221 215 208 206 206 207 210 214 212 206
297 323 318 307 299 278 305 45 77 37 58 64 55 54 54 47 13 284 268 268 338 6 317 293 323 334 337 339 344 352 350 346 349 351 352 351 347 347 344 340 339 333 335 345 347 345 343 337 332 330 325 322 321 315 307 303 304 309 313 314 313 309 304 296 283 267 248 234 227 226 230 232 231 231 229 224 221 216 208 203 204 208 210 214 214 207
292 296 301 313 324 339 350 14 38 8 354 67 50 43 46 43 335 291 293 313 343 323 299 353 344 324 327 337 343 349 349 345 344 345 349 350 348 349 348 346 346 340 337 341 342 343 342 336 332 330 326 323 320 313 305 298 298 305 314 316 312 310 307 297 284 273 256 239 231 226 226 228 229 229 229 226 225 223 217 208 206 209 211 213 213 209
283 275 321 324 316 321 323 324 163 218 243 226 300 11 20 1 310 299 311 338 332 306 317 358 342 322 324 334 340 346 345 340 340 343 345 346 348 349 349 348 348 349 348 344 340 339 338 337 333 328 325 323 320 316 310 302 299 306 314 316 314 311 307 298 284 274 262 246 237 229 225 225 226 228 228 226 225 226 223 216 210 209 211 212 210 209
292 286 81 352 304 296 290 265 193 212 233 221 237 317 5 347 317 300 296 307 314 308 318 333 329 319 320 332 339 343 341 336 336 340 342 343 346 351 352 348 346 348 349 346 341 338 337 337 333 328 326 324 321 320 316 310 308 312 315 316 314 312 308 301 288 274 265 253 241 234 228 225 224 227 227 225 225 223 220 218 213 208 207 210 210 212
295 288 91 1 298 281 252 213 197 227 233 213 219 248 339 344 334 292 283 292 292 293 309 323 319 311 323 339 338 336 337 335 332 338 343 344 347 353 354 351 348 348 347 346 343 340 338 336 332 330 329 327 324 322 318 313 311 314 317 314 311 313 312 305 294 277 265 257 247 240 233 225 224 226 225 226 227 225 220 217 214 208 208 211 214 216
273 242 107 251 278 251 187 193 217 239 239 218 212 215 305 340 350 330 306 304 290 291 309 317 312 313 335 341 333 332 336 334 335 341 344 344 349 352 352 353 353 350 348 346 344 340 339 337 335 335 332 329 327 323 318 316 313 311 313 312 312 317 317 308 298 283 265 258 253 246 237 227 223 225 225 225 225 224 222 219 214 212 212 212 213 215
259 261 165 239 277 255 177 225 265 252 239 226 217 215 272 342 353 356 332 313 277 272 295 309 316 328 337 333 329 332 336 335 338 341 340 343 350 350 350 354 355 352 348 347 344 341 342 340 339 341 337 332 331 327 320 319 319 315 313 313 314 318 318 312 304 292 272 260 256 250 239 229 223 223 226 227 225 222 220 217 212 211 212 212 212 213
270 281 269 270 295 287 192 261 296 263 242 232 211 190 148 5 339 328 333 330 279 247 290 318 326 328 329 330 332 334 335 336 338 337 337 343 348 348 351 354 353 350 346 346 344 342 345 344 343 344 340 334 336 338 336 334 330 323 316 313 313 317 323 320 310 298 282 266 257 252 243 231 225 223 224 224 224 221 218 217 214 211 212 213 213 213
258 270 286 297 296 294 264 285 282 263 260 248 137 144 115 13 331 319 330 336 315 251 302 320 322 325 330 333 333 331 332 333 332 331 336 343 346 348 350 352 351 348 346 347 346 344 345 344 344 345 342 339 340 342 347 347 339 329 323 319 318 322 331 333 326 314 299 283 272 262 249 235 228 227 226 224 222 218 215 216 216 215 214 213 211 211
240 254 272 285 283 293 303 281 268 268 274 124 144 144 97 338 307 313 323 338 13 316 323 325 327 331 332 331 330 328 328 327 324 321 337 349 351 350 347 347 350 350 349 348 347 346 343 341 344 347 346 345 344 342 345 347 339 333 332 332 330 331 336 342 344 341 334 324 310 287 264 245 233 231 230 226 221 217 215 215 214 212 211 212 210 209
235 243 261 277 284 292 290 273 276 303 116 163 181 155 156 248 289 314 322 35 85 353 340 336 333 333 330 329 329 328 326 321 313 312 13 1 353 349 345 344 348 351 352 348 347 346 342 339 345 350 349 346 347 346 347 345 340 338 339 341 340 337 337 345 350 349 345 342 337 322 294 272 261 252 245 238 230 220 215 214 214 212 210 209 208 208
236 249 262 271 274 294 294 289 287 284 228 177 176 158 165 291 332 332 312 283 62 4 351 340 334 334 331 329 330 330 324 315 305 8 32 4 350 346 342 340 345 350 352 347 344 343 340 338 341 347 350 350 351 351 349 345 342 343 344 346 347 344 343 348 351 347 342 339 340 339 326 304 293 286 268 260 256 246 232 223 217 214 212 210 207 204
225 248 268 274 257 274 296 296 285 282 268 150 158 151 125 317 317 307 283 250 53 7 353 343 336 334 333 332 332 329 325 319 321 8 14 356 345 341 338 337 343 349 351 349 345 342 342 342 341 343 350 354 354 354 352 348 346 347 347 347 349 348 347 348 348 345 340 336 334 335 333 322 304 289 274 266 264 262 259 253 240 223 214 210 209 206
213 238 255 266 263 257 276 283 279 286 314 122 147 149 140 205 235 241 247 211 42 4 351 348 338 333 334 334 331 329 331 334 335 348 353 344 337 335 333 334 341 346 349 349 347 344 343 346 347 347 351 356 356 354 354 352 352 353 351 349 350 350 347 345 343 340 335 332 330 330 333 333 318 296 280 270 264 262 261 261 263 259 243 224 213 209
206 228 236 251 262 253 256 272 272 272 265 155 153 142 136 168 221 255 266 354 19 359 351 348 337 333 334 333 330 332 340 338 328 330 335 330 328 331 332 333 337 343 346 348 348 346 343 345 349 350 355 358 355 352 354 355 355 356 355 352 352 352 347 340 337 334 331 329 329 329 330 332 326 311 293 276 268 265 260 256 259 265 267 257 234 216
217 228 234 251 262 240 227 254 267 267 237 177 169 145 134 160 218 269 314 356 353 345 349 343 330 331 332 330 329 330 334 329 317 316 322 324 326 330 331 332 335 339 343 346 349 349 346 346 348 349 353 357 353 351 355 356 355 356 354 352 353 350 344 337 332 331 332 330 328 328 329 328 326 322 313 299 287 277 267 259 252 249 256 264 258 239
235 229 231 245 254 250 244 253 268 279 166 148 153 141 151 196 274 330 350 348 333 336 346 336 325 329 328 325 324 317 317 318 312 314 321 324 326 328 329 332 334 338 342 344 348 351 348 346 347 346 347 352 353 352 354 355 355 354 352 352 352 347 340 336 333 333 335 333 331 331 331 329 328 326 320 315 312 301 286 275 263 250 242 244 250 252
247 244 245 239 237 250 250 243 264 287 145 152 155 148 179 234 319 346 331 334 340 336 333 326 327 332 324 320 320 314 313 314 314 318 323 323 325 327 328 331 333 336 340 341 346 350 346 343 345 345 344 349 353 352 352 353 353 352 353 353 349 343 340 338 336 337 338 339 338 335 334 332 329 328 323 316 313 306 296 282 262 250 240 230 231 238
235 235 257 254 215 228 244 239 261 351 128 165 188 208 228 252 307 324 311 325 341 332 325 326 331 331 322 318 319 315 315 318 320 323 323 323 326 326 325 329 332 334 338 340 344 347 345 341 343 343 342 347 352 352 353 353 351 349 351 352 347 342 342 341 339 340 342 345 345 341 340 338 333 330 326 321 315 302 291 284 266 252 247 237 230 228
220 235 278 286 233 239 265 281 292 328 164 203 239 269 271 260 264 279 287 304 319 328 329 322 323 327 323 319 317 316 318 323 324 324 325 325 326 326 326 330 332 333 335 337 339 342 342 340 342 342 341 344 350 352 352 352 351 347 347 348 347 345 343 342 341 341 342 347 349 347 346 343 339 337 332 323 316 306 294 289 279 263 253 244 238 235
221 242 278 276 258 261 270 270 266 266 264 251 248 257 264 259 241 226 249 273 299 323 318 306 314 320 318 318 318 317 321 324 322 323 326 325 324 327 329 330 333 332 331 333 336 339 339 339 342 343 342 343 349 352 351 350 352 350 346 345 346 346 343 341 342 342 342 346 349 350 350 347 342 338 333 325 318 309 299 291 283 272 260 248 240 237
219 214 237 252 258 267 262 249 243 249 256 258 256 250 248 250 243 230 242 268 292 299 296 297 302 305 307 313 316 315 319 323 322 324 328 327 325 329 331 333 334 333 331 333 336 338 339 341 344 345 344 344 346 349 348 348 350 350 347 344 344 345 344 342 342 342 344 347 349 350 350 347 342 338 333 329 324 316 306 296 285 277 268 256 246 239
193 170 233 250 248 250 258 261 262 260 256 257 259 257 252 247 234 216 220 243 257 262 270 279 288 296 305 310 313 314 316 321 325 326 326 326 327 330 333 333 332 331 333 336 338 339 341 344 346 346 346 346 345 344 345 346 347 347 347 345 343 343 345 345 344 343 345 349 351 351 349 345 341 338 334 330 325 318 312 307 298 288 277 267 258 251
352 176 242 259 257 256 258 260 263 264 259 247 239 249 260 253 227 210 206 211 225 240 252 263 270 285 299 305 310 311 311 320 330 327 322 323 328 331 333 333 332 334 337 339 339 340 343 345 347 348 347 346 346 344 344 345 346 347 348 346 343 343 344 344 344 345 347 350 352 351 348 344 342 339 333 329 326 320 314 310 304 295 287 278 269 263
251 242 249 255 255 254 255 254 258 263 261 242 229 251 258 238 221 219 217 216 224 232 245 269 274 276 282 289 300 309 311 322 331 326 320 323 328 330 333 333 333 336 338 339 340 343 346 347 348 348 348 347 347 345 345 346 347 349 350 347 344 344 344 343 342 343 345 348 350 349 346 343 342 340 334 329 326 323 317 312 305 295 287 280 273 267
245 250 254 254 258 266 273 273 270 270 269 264 266 277 257 220 212 223 225 226 230 218 218 260 275 279 280 278 291 307 318 327 329 325 323 324 326 330 334 334 335 338 340 343 345 346 348 349 349 348 349 349 348 347 347 348 349 351 350 347 344 344 345 344 342 341 341 344 345 345 344 342 340 338 335 329 326 325 322 317 311 303 292 283 278 273
Height
794 795 798 801 803 804 803 802 802 801 801 802 801 799 798 796 791 786 784 784 789 795 790 784 785 782 778 775 771 770 769 770 772 771 770 769 768 768 768 768 768 767 765 764 765 767 767 767 766 766 766 766 767 768 770 771 774 776 778 780 780 779 784 791 793 792 793 794 796 797 798 799 801 803 807 811 814 817 819 821 823 825 827 828 829 831
794 800 805 805 805 804 803 803 803 802 802 802 800 798 794 792 789 784 786 786 787 795 792 783 785 783 777 773 770 768 768 769 768 768 768 767 767 767 767 768 767 766 765 764 764 765 766 766 766 766 766 766 767 768 769 770 773 775 777 778 780 778 779 785 790 791 792 792 792 793 794 795 798 800 802 806 811 814 817 819 821 822 824 826 827 829
798 804 808 805 803 802 801 802 803 802 801 799 796 796 794 790 789 786 785 787 788 793 792 785 787 783 774 770 768 766 767 767 766 767 767 767 768 768 767 768 768 768 767 765 765 764 765 766 766 766 766 766 767 767 768 769 772 774 775 776 778 779 778 780 786 789 791 791 790 791 792 794 796 797 800 803 807 811 813 816 818 820 822 824 826 827
803 807 807 805 804 802 800 800 802 800 798 797 795 796 794 790 796 795 787 787 788 788 788 787 786 779 769 767 768 768 768 768 768 768 768 769 771 771 770 770 771 770 769 768 767 766 765 766 766 767 766 766 766 767 766 768 770 771 772 774 775 777 779 780 783 786 787 788 789 790 792 794 794 795 798 802 805 808 811 813 816 817 819 821 823 825
806 809 805 804 804 802 802 801 802 802 797 795 796 798 797 796 800 799 792 790 787 781 781 787 789 778 771 772 771 768 768 770 771 770 771 772 772 774 773 772 773 772 772 770 769 767 766 766 767 767 767 766 766 766 766 766 769 769 770 772 773 775 777 779 780 782 783 784 786 789 791 793 793 793 796 799 803 806 808 810 812 814 815 818 820 823
806 808 805 805 804 802 802 802 805 807 800 795 797 799 801 801 801 798 795 794 792 785 781 790 798 788 777 777 775 771 770 771 773 774 775 775 775 775 775 775 775 774 773 772 770 769 768 767 768 767 767 767 766 765 765 766 767 768 768 769 771 773 775 776 777 779 781 781 783 787 788 788 788 789 791 795 798 802 804 806 808 810 812 814 817 819
806 806 804 805 804 801 801 802 806 808 802 797 799 801 801 802 800 797 795 796 796 791 781 786 800 795 779 775 776 775 775 774 775 778 779 779 779 779 779 777 776 775 774 772 772 771 770 769 768 767 767 767 766 765 765 765 766 767 767 767 769 771 772 774 775 776 778 780 782 784 785 784 783 783 786 790 794 797 800 803 806 807 809 810 813 816
809 808 807 805 803 801 803 806 807 808 806 800 799 800 800 799 798 795 794 794 791 788 785 784 793 795 784 777 778 777 779 780 780 782 783 783 783 782 782 780 778 777 775 774 773 772 771 771 769 768 768 767 766 765 764 764 765 765 766 766 767 769 770 771 773 774 776 778 781 782 782 782 780 780 782 786 790 794 797 800 802 804 806 807 810 813
811 813 813 808 805 806 808 810 808 808 806 800 798 799 798 797 796 793 791 792 788 789 796 791 789 793 788 781 779 780 786 791 789 788 788 785 784 784 784 782 780 778 776 774 774 773 772 771 770 769 768 767 766 765 764 763 763 764 765 766 766 767 768 769 771 772 773 776 779 780 779 779 779 780 781 783 787 792 795 797 799 801 803 804 807 810
814 814 812 809 810 811 810 809 807 808 806 801 797 794 791 791 792 791 789 788 790 797 803 796 791 796 794 786 786 791 797 800 796 792 790 788 787 786 785 784 781 778 777 775 774 773 773 772 771 769 768 767 766 765 764 763 762 762 763 764 765 765 767 768 769 769 770 774 777 777 776 776 779 780 781 782 785 790 793 794 796 798 799 801 804 807
814 812 810 811 815 812 807 805 807 808 803 797 792 788 788 788 788 790 788 786 794 806 805 797 794 798 803 802 800 803 804 801 799 796 793 791 789 787 786 784 781 779 778 776 774 773 773 772 771 769 768 767 766 765 764 762 761 761 761 761 762 763 765 766 767 768 769 771 773 774 773 774 777 779 780 781 783 787 790 791 792 794 796 798 801 804
810 811 812 813 814 810 803 800 803 803 798 794 789 787 789 788 789 793 790 789 801 812 807 798 794 798 810 814 807 804 802 799 801 800 797 795 792 789 787 784 781 780 779 776 775 774 772 772 770 769 768 766 765 765 763 762 761 759 759 759 760 761 762 763 765 766 766 768 769 770 771 771 773 777 779 779 781 784 787 788 789 791 793 796 799 802
811 812 812 812 812 809 806 801 800 798 796 797 793 791 791 791 798 802 797 797 805 810 804 798 800 805 812 813 805 802 802 800 801 801 799 797 793 790 787 785 782 780 779 778 776 775 773 771 770 769 768 766 765 764 763 762 760 759 758 757 758 758 759 761 762 763 762 763 764 766 767 768 769 773 777 778 779 781 782 783 785 788 790 793 796 798
817 816 810 810 811 810 810 810 810 804 802 805 803 804 804 805 815 816 807 807 810 809 800 795 803 809 812 812 805 803 803 801 801 801 799 798 794 791 788 785 784 781 781 779 777 776 773 771 770 769 768 766 764 764 763 761 760 759 757 756 755 756 758 759 759 759 759 759 760 762 763 764 764 768 774 777 777 776 778 779 781 785 788 789 792 794
821 825 818 816 816 813 812 814 816 809 804 806 803 805 811 817 825 823 816 818 818 813 804 800 807 811 813 813 804 802 803 803 803 802 800 799 795 792 789 785 784 782 781 779 776 775 773 772 770 769 768 766 764 763 762 761 760 758 757 755 754 754 755 756 756 756 756 757 758 759 760 760 760 764 769 773 773 773 775 777 779 783 785 786 789 791
818 824 821 818 817 815 814 813 811 807 805 802 796 803 816 823 826 823 822 825 824 820 812 810 812 807 805 806 800 802 806 804 806 805 802 801 796 793 791 787 784 782 780 779 777 775 773 772 770 768 767 766 764 763 761 760 759 758 756 755 753 752 752 753 753 754 754 755 756 756 757 757 758 761 765 768 769 771 773 775 776 780 782 783 786 788
820 822 819 818 817 815 815 813 809 808 809 801 800 813 822 824 824 824 824 821 820 824 818 811 813 806 803 808 805 805 808 805 807 807 803 801 799 796 794 789 786 783 780 778 776 775 773 771 769 767 766 764 763 762 760 759 758 757 755 754 752 751 749 749 750 751 752 753 753 754 755 756 757 759 762 764 766 768 771 772 773 776 778 780 782 784
823 823 819 817 818 816 815 814 811 809 808 807 813 822 822 823 823 819 820 819 817 822 817 808 812 812 813 818 813 808 810 809 809 809 805 802 802 800 796 791 788 785 782 779 776 774 773 771 769 766 765 763 762 761 759 758 757 755 754 752 751 749 748 747 747 748 749 751 752 752 752 753 755 757 759 760 763 766 768 770 771 773 775 776 779 782
823 824 821 815 816 816 810 811 814 812 811 814 817 817 818 827 825 815 819 827 826 824 816 807 806 810 818 822 817 814 816 815 813 812 809 805 804 803 797 792 790 787 785 781 776 773 771 770 768 766 764 761 759 758 757 756 755 753 752 751 749 748 746 745 745 745 746 747 748 748 749 749 751 754 756 758 760 763 765 767 769 771 772 774 777 780
823 825 825 816 812 813 810 813 821 820 816 815 814 815 818 823 824 821 822 828 829 824 818 812 808 813 821 821 817 820 820 818 816 815 813 809 806 804 799 794 791 788 786 782 777 772 768 768 767 765 763 760 757 756 755 754 753 751 750 749 748 746 745 743 743 742 742 743 744 745 745 746 748 750 752 754 757 760 762 765 768 770 771 773 774 776
822 822 824 817 811 815 817 819 824 825 823 820 824 829 827 821 822 826 825 824 824 823 825 825 820 819 820 814 815 822 821 817 816 816 817 813 807 805 801 796 791 788 785 782 778 773 768 765 765 763 761 758 755 754 752 751 750 749 748 747 746 745 743 742 740 740 739 739 740 741 742 743 745 747 749 750 753 756 759 762 766 768 769 770 771 772
824 820 820 817 816 820 823 822 823 824 825 825 829 836 836 830 827 826 824 822 820 823 829 832 828 822 815 810 814 818 817 816 816 816 818 815 810 806 801 795 790 786 784 780 776 773 769 764 762 761 759 756 753 751 750 749 748 747 746 745 744 743 741 740 739 737 737 736 737 737 738 740 742 743 745 747 748 751 753 757 760 762 764 767 768 769
829 825 820 818 818 821 823 823 822 824 825 824 827 832 835 836 833 829 827 826 824 822 823 826 827 819 810 810 813 813 813 814 814 815 817 815 811 806 799 794 790 785 783 780 776 772 769 766 762 760 758 755 752 750 749 748 746 745 744 743 742 741 739 738 737 736 735 734 734 734 735 736 738 739 741 743 744 746 748 752 754 756 759 762 763 764
831 827 822 820 819 822 824 824 824 825 825 825 827 830 831 836 838 834 833 834 830 825 826 830 826 811 804 808 809 808 809 811 810 810 813 812 809 804 799 796 791 786 782 779 776 773 770 767 763 759 757 755 753 750 748 746 745 743 742 741 740 739 738 737 736 734 733 732 732 732 732 733 735 736 737 739 742 743 745 747 750 752 755 757 759 760
831 827 824 824 824 827 830 832 833 829 826 826 829 830 830 834 837 837 838 837 831 828 834 836 823 808 806 808 807 806 808 808 807 807 808 809 807 803 799 796 793 789 783 778 775 773 770 768 764 761 758 755 752 750 748 747 744 741 740 739 738 737 736 735 733 732 731 731 730 730 731 731 732 733 734 736 739 741 742 745 747 748 751 752 754 755
829 827 826 827 827 828 831 833 833 830 826 827 829 830 831 833 836 837 834 827 824 830 835 832 823 815 813 810 806 806 807 806 805 805 805 804 804 802 799 796 793 791 786 780 775 773 771 768 765 762 759 756 753 750 749 748 744 739 737 737 737 736 735 733 731 730 729 729 728 728 729 729 730 730 731 733 735 736 738 741 742 744 746 748 749 750
830 827 826 828 828 827 829 829 828 828 830 831 831 830 830 832 835 835 828 823 828 833 828 825 827 826 820 813 807 806 808 807 806 805 805 803 801 800 798 796 793 790 788 783 777 774 772 769 766 763 760 757 755 753 750 748 744 738 735 735 734 734 733 732 730 728 727 726 726 726 726 726 727 728 728 730 731 732 734 736 736 738 741 743 744 746
831 828 827 830 830 827 827 827 827 830 833 834 833 831 829 830 833 836 833 830 834 832 821 819 827 831 826 818 811 809 810 809 806 806 806 803 801 799 797 795 793 788 785 783 779 776 772 769 767 763 760 757 754 752 749 746 742 737 734 733 732 732 731 730 728 726 725 724 723 722 722 723 724 725 726 728 729 729 731 732 732 732 736 739 741 743
831 828 827 833 834 828 825 824 826 829 831 831 831 830 829 829 831 835 835 832 833 832 826 824 830 831 825 816 812 811 811 809 806 805 805 802 800 799 796 796 793 788 785 782 779 776 772 769 767 763 759 756 753 750 747 742 738 735 733 732 731 730 729 728 726 724 723 721 720 719 719 720 721 722 723 725 726 727 728 729 729 729 731 734 736 740
832 829 829 835 836 830 826 824 825 828 829 830 829 827 827 828 828 831 832 830 831 832 828 827 829 826 818 814 813 811 809 807 804 802 802 801 800 798 797 797 795 790 786 782 779 777 772 769 766 762 758 756 752 750 746 741 738 734 732 731 730 728 727 726 724 722 720 718 717 716 716 717 718 719 720 721 723 723 723 724 726 726 726 728 731 736
833 831 832 836 834 828 826 826 825 826 827 827 827 825 825 826 826 828 830 829 831 832 830 829 827 820 813 812 812 808 806 805 802 801 802 801 799 798 797 797 795 791 787 784 780 777 773 769 765 761 758 756 753 750 746 741 738 736 733 731 729 727 726 725 722 720 718 716 714 714 714 714 715 716 717 718 718 719 720 721 722 723 723 725 728 732
831 828 829 831 829 825 826 826 824 824 824 825 828 826 826 826 825 826 828 828 832 837 835 829 823 818 813 810 809 807 806 805 802 801 801 800 799 798 797 796 794 791 789 785 781 778 774 769 765 761 759 756 752 748 745 741 738 736 733 731 729 727 725 723 721 718 715 713 711 711 710 710 711 712 713 714 715 716 717 718 720 720 721 723 726 729
829 827 826 829 828 824 824 824 823 824 826 828 828 826 826 828 826 825 824 823 828 833 832 827 821 817 812 808 808 807 805 804 802 800 801 801 799 797 796 796 794 792 789 785 782 780 775 771 767 763 760 756 752 748 744 741 738 736 733 731 729 726 724 722 719 716 713 711 709 708 707 707 709 709 710 711 711 713 714 715 716 717 719 721 723 726
830 829 826 828 829 824 821 823 824 825 827 828 825 822 823 827 827 826 823 821 823 824 824 822 817 813 810 809 810 808 805 804 802 800 801 801 799 797 796 795 794 792 789 786 783 781 776 772 769 765 761 757 753 749 746 743 741 738 734 731 728 725 724 722 718 715 713 710 707 706 705 705 706 706 707 708 709 710 711 712 713 714 716 718 720 721
831 829 825 827 829 823 819 823 827 826 824 824 821 820 822 824 824 824 821 819 820 821 819 818 815 812 811 810 809 807 805 803 801 799 801 800 799 798 796 795 795 792 788 786 784 782 778 774 770 766 762 758 755 751 747 744 742 738 734 731 728 726 724 722 719 716 714 712 709 707 705 704 703 704 704 705 706 707 708 709 710 711 712 714 715 716
830 828 825 825 827 823 820 823 825 823 821 823 822 820 823 824 822 823 821 817 818 819 818 817 815 812 811 810 808 806 805 802 798 795 797 799 798 797 797 796 794 791 789 787 785 782 780 776 772 768 764 761 757 753 749 746 743 739 735 732 730 728 725 722 720 718 716 714 711 709 707 705 703 703 703 704 704 704 705 705 706 707 708 709 710 712
827 826 825 826 828 827 823 820 817 814 818 825 825 821 821 822 821 823 824 818 815 816 817 817 815 813 811 810 808 806 804 800 794 790 794 798 798 796 796 796 794 791 789 787 786 783 781 777 773 769 766 762 759 755 751 748 744 740 737 734 732 729 726 724 722 720 718 716 713 711 709 706 705 704 703 704 704 704 703 702 701 702 704 705 705 707
825 824 825 828 829 828 826 823 819 815 817 822 823 818 818 819 819 822 825 820 814 814 815 815 814 813 811 810 808 806 802 799 794 790 794 798 798 796 795 794 792 790 787 786 785 782 780 777 774 770 767 763 760 756 753 749 745 742 739 736 734 731 728 726 724 722 720 718 715 713 710 707 705 704 704 704 705 705 704 703 702 701 701 701 702 702
826 824 825 827 826 825 827 827 824 822 819 817 818 816 817 819 818 821 824 820 814 812 812 813 814 813 812 811 810 806 803 801 797 794 796 799 798 796 795 793 791 789 787 786 784 782 780 777 774 770 767 763 760 757 753 750 746 743 740 737 735 733 731 728 726 724 722 719 717 714 711 708 706 704 703 702 703 704 704 704 704 703 701 700 699 699
828 825 824 825 823 823 829 829 825 822 817 814 815 816 816 817 820 824 824 817 811 811 812 813 814 814 812 812 810 806 805 805 802 798 799 800 797 795 794 792 790 788 787 786 784 782 780 777 773 770 767 764 761 757 754 751 747 744 741 739 736 734 732 729 727 725 722 720 717 714 712 710 708 706 704 702 702 702 702 701 702 702 702 701 699 698
824 823 823 823 820 821 830 832 823 815 810 811 814 815 816 819 823 825 822 814 811 811 811 812 814 814 813 813 811 808 806 806 805 802 801 799 797 795 794 792 790 788 787 786 784 782 779 776 773 771 768 765 762 758 755 751 748 745 742 740 738 735 733 730 727 724 722 720 717 715 713 711 710 708 705 703 701 701 700 699 699 699 699 700 701 700
818 819 820 821 819 817 820 824 820 811 807 810 813 815 818 820 820 818 814 811 811 811 811 812 813 813 813 813 812 810 808 807 806 803 801 799 797 795 793 791 790 788 787 785 784 782 780 776 772 771 768 766 763 759 756 753 749 747 744 741 739 736 733 730 727 723 721 719 717 715 713 711 709 708 705 703 701 699 698 697 698 697 697 698 701 702
811 815 814 811 812 815 819 823 822 814 808 810 813 816 819 817 812 809 808 808 809 810 811 812 811 812 813 813 812 811 809 807 805 803 801 799 797 795 794 792 791 789 787 785 783 782 781 777 773 771 769 766 763 761 758 754 751 748 745 742 739 737 734 730 727 723 720 718 716 714 712 710 708 707 705 704 702 700 698 697 697 698 697 697 698 699
807 811 809 802 804 812 816 816 813 808 805 808 810 811 812 810 806 807 808 807 807 809 810 811 810 811 813 812 811 811 808 806 805 803 801 799 796 795 794 792 791 790 788 786 784 783 781 778 774 772 769 767 765 762 759 756 753 749 746 743 740 737 734 731 727 724 720 717 715 713 711 709 707 705 704 703 702 701 699 697 696 696 695 694 694 694
806 808 810 806 806 807 806 803 802 802 803 806 807 806 806 806 805 807 809 808 807 808 809 810 810 811 811 812 811 810 808 806 805 803 801 799 797 795 793 792 792 791 789 788 786 784 781 778 774 772 770 768 766 763 760 757 754 750 746 743 740 737 734 731 728 724 721 717 714 712 710 708 706 705 703 702 701 699 698 695 694 693 692 691 691 690
806 809 812 810 806 804 801 799 799 801 801 803 804 804 804 804 805 807 808 808 807 808 809 811 811 811 811 811 810 809 808 806 805 803 801 799 797 795 793 792 792 791 790 788 786 784 782 778 775 773 770 768 765 763 760 758 755 752 748 744 741 738 735 732 728 725 722 718 715 713 711 709 707 705 703 702 700 698 696 695 693 691 690 689 688 688
805 810 812 809 807 808 805 799 797 800 802 802 803 803 803 804 804 805 807 807 807 809 810 810 811 811 810 810 809 809 808 806 804 802 800 798 797 795 793 793 792 791 790 788 786 784 782 778 775 774 771 769 766 764 762 759 756 754 750 746 743 739 736 733 729 726 723 719 716 714 711 709 707 705 703 701 699 697 696 694 693 690 688 687 686 685
805 811 811 806 805 805 802 796 795 798 799 799 801 801 801 802 802 803 805 807 808 809 809 810 811 810 809 809 809 809 808 806 805 803 800 798 797 795 794 793 792 790 789 787 786 785 782 779 777 775 773 771 768 766 763 761 758 755 752 748 744 740 736 734 731 728 724 721 718 715 712 710 708 705 703 701 699 697 695 693 692 690 688 685 684 682
808 813 808 803 803 801 797 794 795 796 795 795 798 799 799 799 800 802 805 806 807 808 808 808 809 809 809 809 809 808 808 806 805 804 801 799 797 796 795 794 792 789 788 787 786 785 783 781 779 777 775 773 770 768 765 763 760 756 753 749 745 741 737 734 731 728 725 722 719 717 714 711 709 706 703 701 698 696 694 693 692 690 687 685 683 681
808 808 803 802 804 801 796 793 793 794 794 793 795 797 797 798 800 801 803 804 805 806 807 807 808 808 808 808 808 808 807 806 805 804 802 800 798 796 795 793 792 790 788 787 786 785 784 782 780 778 776 774 771 769 767 764 761 758 755 751 747 743 739 735 731 728 726 723 721 718 716 713 710 708 705 701 698 695 692 690 690 689 686 683 680 679
802 802 799 799 798 795 792 790 791 793 793 791 793 796 796 796 798 800 801 802 803 804 806 807 807 806 806 807 807 807 807 806 805 804 803 801 799 797 795 794 792 791 789 788 787 786 784 782 780 778 776 774 773 770 767 764 762 759 756 752 748 745 742 739 735 732 728 725 723 720 717 715 712 709 706 703 700 696 691 687 684 682 681 679 677 675